Weather History for Hurlburt Field, FL

Change the Weather History Date:

Thursday, January 17, 2013

  Actual Average Record
Temperature  
Mean Temperature 44 °F -  
Max Temperature 48 °F 59 °F 73 °F (1999)
Min Temperature 41 °F 40 °F 24 °F (1997)
Degree Days  
Heating Degree Days 20    
Moisture  
Dew Point 40 °F    
Average Humidity 88    
Maximum Humidity 100    
Minimum Humidity 75    
Precipitation  
Precipitation 0.01 in - - ()
Sea Level Pressure  
Sea Level Pressure 30.14 in    
Wind  
Wind Speed 14 mph (NW)    
Max Wind Speed 24 mph    
Max Gust Speed 33 mph    
Visibility 10 miles    
Events Rain    
Averages and records for this station are not official NWS values.
T = Trace of Precipitation, MM = Missing Value Source: NWS Daily Summary

Daily Weather History Graph

Daily Weather History Graph

Search for Another Location

Airport:

Trip Planner

Search our weather history database for the weather conditions in past years. The results will help you decide how hot, cold, wet, or windy it might be!

Date:

Astronomy

Jan. 17, 2013 Rise Set
Actual Time 6:43 AM CST 5:10 PM CST
Civil Twilight 6:17 AM CST 5:36 PM CST
Nautical Twilight 5:48 AM CST 6:05 PM CST
Astronomical Twilight 5:19 AM CST 6:34 PM CST
Moon 10:21 AM CST (1/17) 11:28 PM CST (1/17)
Length of Visible Light 11h 18m
Length of Day
10h 26m
Waxing Crescent, 38% of the Moon is Illuminated
Jan 17
Waxing Crescent
Jan 18
First Quarter
Jan 26
Full
Feb 3
Last Quarter
Feb 10
New

Hourly Weather History & Observations

Time (CST) Temp. Windchill Dew Point Humidity Pressure Visibility Wind Dir Wind Speed Gust Speed Precip Events Conditions
12:55 AM 48.2 °F - 48.2 °F 100% 30.01 in 10.0 mi NW 11.5 mph - N/A   Overcast
1:55 AM 48.2 °F - 48.2 °F 100% 30.01 in 10.0 mi NW 10.4 mph - N/A   Overcast
2:55 AM 46.4 °F 42.4 °F 46.4 °F 100% 30.01 in 10.0 mi WNW 8.1 mph - N/A   Overcast
3:55 AM 46.4 °F 40.7 °F 46.4 °F 100% 30.01 in 10.0 mi WNW 12.7 mph - N/A   Overcast
4:55 AM 46.4 °F 40.4 °F 46.4 °F 100% 30.04 in 10.0 mi West 13.8 mph 20.7 mph N/A Rain Light Rain
5:52 AM 44.6 °F 38.4 °F 44.6 °F 100% 30.06 in 10.0 mi WNW 12.7 mph 21.9 mph N/A   Overcast
5:55 AM 44.4 °F 37.5 °F 44.4 °F 100% 30.06 in 10.0 mi WNW 15.0 mph 21.9 mph 0.00 in   Overcast
6:04 AM 44.6 °F 39.2 °F 44.6 °F 100% 30.06 in 10.0 mi WNW 10.4 mph 20.7 mph N/A   Overcast
6:55 AM 42.6 °F 34.9 °F 42.6 °F 100% 30.07 in 10.0 mi West 16.1 mph 24.2 mph N/A   Overcast
7:47 AM 41.0 °F 33.5 °F 41.0 °F 100% 30.10 in 10.0 mi NW 13.8 mph 19.6 mph N/A   Overcast
7:55 AM 41.5 °F 35.4 °F 41.5 °F 100% 30.10 in 10.0 mi WNW 10.4 mph 19.6 mph N/A   Overcast
8:29 AM 41.0 °F 34.3 °F 41.0 °F 100% 30.11 in 10.0 mi NW 11.5 mph 19.6 mph N/A   Overcast
8:33 AM 41.0 °F 34.7 °F 41.0 °F 100% 30.10 in 10.0 mi NW 10.4 mph 19.6 mph N/A   Overcast
8:55 AM 41.2 °F 33.7 °F 41.2 °F 100% 30.13 in 10.0 mi WNW 13.8 mph 20.7 mph N/A   Overcast
9:55 AM 41.4 °F 33.3 °F 39.9 °F 95% 30.14 in 10.0 mi NW 16.1 mph 21.9 mph N/A   Overcast
9:58 AM 41.0 °F 33.1 °F 39.2 °F 93% 30.14 in 10.0 mi WNW 15.0 mph 21.9 mph N/A   Overcast
10:55 AM 41.7 °F 34.8 °F 38.7 °F 89% 30.14 in 10.0 mi NW 12.7 mph 20.7 mph N/A   Overcast
11:55 AM 41.9 °F 35.0 °F 37.2 °F 83% 30.14 in 10.0 mi NW 12.7 mph 23.0 mph N/A   Overcast
12:55 PM 43.9 °F 36.8 °F 37.0 °F 77% 30.12 in 10.0 mi NW 15.0 mph 26.5 mph N/A   Overcast
1:00 PM 42.8 °F 35.4 °F 37.4 °F 81% 30.13 in 10.0 mi NW 15.0 mph 26.5 mph N/A   Overcast
1:39 PM 44.6 °F 35.7 °F 37.4 °F 76% 30.12 in 10.0 mi NW 24.2 mph 33.4 mph N/A   Overcast
1:44 PM 44.6 °F 37.2 °F 37.4 °F 76% 30.12 in 10.0 mi NNW 17.3 mph 33.4 mph N/A   Overcast
1:51 PM 44.6 °F 37.4 °F 37.4 °F 76% 30.12 in 10.0 mi NW 16.1 mph 28.8 mph N/A   Overcast
1:55 PM 44.8 °F 37.4 °F 38.1 °F 77% 30.13 in 10.0 mi NNW 17.3 mph 26.5 mph N/A   Overcast
2:55 PM 45.9 °F 38.5 °F 38.5 °F 75% 30.14 in 10.0 mi NW 18.4 mph 26.5 mph N/A   Overcast
3:55 PM 45.7 °F 38.8 °F 39.0 °F 78% 30.17 in 10.0 mi NW 16.1 mph 25.3 mph N/A   Overcast
4:55 PM 45.5 °F 37.6 °F 39.4 °F 79% 30.19 in 10.0 mi NNW 20.7 mph 28.8 mph N/A   Overcast
4:57 PM 44.6 °F 36.9 °F 39.2 °F 81% 30.19 in 10.0 mi NNW 18.4 mph 28.8 mph N/A   Overcast
5:08 PM 44.6 °F 35.9 °F 39.2 °F 81% 30.20 in 10.0 mi NNW 23.0 mph 33.4 mph N/A   Mostly Cloudy
5:15 PM 44.6 °F 37.8 °F 39.2 °F 81% 30.20 in 10.0 mi NNW 15.0 mph 33.4 mph N/A   Scattered Clouds
5:55 PM 44.4 °F 37.2 °F 39.0 °F 81% 30.22 in 10.0 mi NNW 16.1 mph - N/A   Clear
6:55 PM 43.9 °F 36.5 °F 38.8 °F 82% 30.25 in 10.0 mi NW 16.1 mph 20.7 mph N/A   Clear
7:55 PM 43.2 °F 35.6 °F 37.4 °F 80% 30.27 in 10.0 mi North 16.1 mph 24.2 mph N/A   Clear
8:55 PM 43.2 °F 35.3 °F 37.0 °F 79% 30.27 in 10.0 mi NNW 17.3 mph 29.9 mph N/A   Clear
9:55 PM 42.4 °F 34.7 °F 37.4 °F 82% 30.27 in 10.0 mi NNW 16.1 mph 24.2 mph N/A   Clear
10:55 PM 42.3 °F 34.1 °F 37.6 °F 83% 30.27 in 10.0 mi North 17.3 mph 23.0 mph N/A   Clear
11:55 PM 42.6 °F 34.9 °F 37.6 °F 82% 30.29 in 10.0 mi North 16.1 mph 24.2 mph N/A   Clear